sim
Sign-in with your pilot id or email,
or register
Callsign
Passwort

Schedule Details

Flight Number: RYR6661
Departure: Bremen Airport (EDDW) at 10:55
Arrival: Fuerteventura Airport (GCFV) at 15:40
Route: Ryanair Passenger Schedule. Enter filed route here before submitting Pirep.

Weather Information
Getting current METAR information for EDDW 212150Z 08007KT CAVOK 13/00 Q1017
Getting current METAR information for GCFV 212130Z 34010KT 300V360 9999 SCT029 19/13 Q1015

Schedule Frequency

Route Map